Hourly Data Report for October 05, 2017

All times are specified in Local Standard Time (LST). Add 1 hour to adjust for Daylight Saving Time where and when it is observed.

FORT SMITH A
NORTHWEST TERRITORIES

60°01'13.000" N
111°57'43.000" W
205.10 m
2202201
71934
YSM

Download Data

Hourly Data (October 2017)
Hourly Data Report for October 5, 2017
Temp Definition
°C
Dew Point Temp Definition
°C
Rel Hum Definition
%
Wind Dir Definition
10's deg

Wind Spd Definition
km/h
Visibility Definition
km
Stn Press Definition
kPa
Hmdx Definition


Wind Chill Definition


Weather Definition


TIME
00:00 Legend Double Dagger 2.8 1.1 89 36 3 24.1 99.26     LegendNANA
01:00 Legend Double Dagger 2.0 0.7 91 7 4 24.1 99.23     LegendNANA
02:00 Legend Double Dagger 1.4 0.3 93 6 3 24.1 99.24     Mostly Cloudy
03:00 Legend Double Dagger 1.4 0.2 91 7 4 24.1 99.13     LegendNANA
04:00 Legend Double Dagger 1.8 0.4 91 9 4 24.1 99.09     LegendNANA
05:00 Legend Double Dagger 1.5 0.3 92 10 4 24.1 99.01     Mostly Cloudy
06:00 Legend Double Dagger 1.2 0.2 93 13 4 24.1 98.95     LegendNANA
07:00 Legend Double Dagger 1.1 0.3 94 14 6 24.1 98.89     LegendNANA
08:00 Legend Double Dagger 2.6 1.3 91 13 7 24.1 98.83     Mostly Cloudy
09:00 Legend Double Dagger 4.1 2.4 89 14 11 24.1 98.73     LegendNANA
10:00 Legend Double Dagger 6.1 2.5 78 14 17 24.1 98.61     LegendNANA
11:00 Legend Double Dagger 8.5 3.3 70 10 7 24.1 98.51     Mainly Clear
12:00 Legend Double Dagger 9.8 3.2 63 13 13 24.1 98.35     LegendNANA
13:00 Legend Double Dagger 10.8 3.6 61 14 11 24.1 98.23     LegendNANA
14:00 Legend Double Dagger 12.0 4.2 59 13 10 24.1 98.07     Mostly Cloudy
15:00 Legend Double Dagger 11.7 3.8 58 15 18 24.1 97.96     LegendNANA
16:00 Legend Double Dagger 11.1 3.9 61 14 12 24.1 97.86     LegendNANA
17:00 Legend Double Dagger 9.9 3.5 64 12 9 24.1 97.75     Mostly Cloudy
18:00 Legend Double Dagger 8.8 3.4 69 14 10 24.1 97.63     LegendNANA
19:00 Legend Double Dagger 8.3 3.8 73 14 8 24.1 97.57     LegendNANA
20:00 Legend Double Dagger 7.2 3.8 79 14 7 24.1 97.44     Mostly Cloudy
21:00 Legend Double Dagger 6.1 3.4 83 16 9 24.1 97.32     LegendNANA
22:00 Legend Double Dagger 5.8 3.4 85 15 8 24.1 97.22     LegendNANA
23:00 Legend Double Dagger 4.7 3.0 89 14 5 24.1 97.12     Mainly Clear

Notes on Data Quality.

Legend

  • E = Estimated
  • M = Missing
  • NA = Not Available
  • ‡ = Partner data that is not subject to review by the National Climate Archives
Date modified: